Regional Weather Roundup
Issued by NWS

Home | Current Version | Previous Version | Text Only | Print | Product List | Glossary On
Versions: 1 2 3 4 5 6 7 8 9 10 11 12 13 14 15 16 17 18 19 20 21 22 23 24 25 26 27 28 29 30 31 32 33 34 35 36 37 38 39 40 41 42 43 44 45 46 47 48 49 50
000
ASHW40 PHFO 041243
RWRHI

WEATHER ROUNDUP FOR HAWAII
NATIONAL WEATHER SERVICE HONOLULU HI
200 AM HST FRI SEP 04 2015

THIS IS AN AUTOMATED REPORT THAT HAS NOT BEEN QUALITY CONTROLLED.

NOTE..."FAIR" INDICATES FEW OR NO CLOUDS BELOW 12,000 FEET WITH NO
SIGNIFICANT WEATHER AND/OR OBSTRUCTIONS TO VISIBILITY.

* - THESE SITES REPORT LIMITED FIELDS

HIZ001>004-041300-
KAUAI-NIIHAU-

CITY           SKY/WX    TMP DP  RH WIND       PRES   REMARKS
LIHUE APT      PTCLDY    77  74  90 SW3       29.88F
PORT ALLEN*    NOT AVBL
POIPU*           N/A     79 N/A N/A NE2         N/A
PRINCEVILLE*     N/A     77 N/A N/A MISG        N/A
KOKOLE POINT*  NOT AVBL
MOLOAA DAIRY*    N/A     79  75  89 SE3G10      N/A
WAIMEA HTS*      N/A     77  72  83 NE6G12      N/A
PUU OPAE*        N/A     72  66  83 E6G12       N/A
PUU LUA*       NOT AVBL
MAKAHA RIDGE*    N/A     72  68  88 CALM        N/A
$$

HIZ005>011-041300-
OAHU-

CITY           SKY/WX    TMP DP  RH WIND       PRES   REMARKS
HONOLULU       CLOUDY    76  73  90 CALM      29.86F
KALAELOA       MOCLDY    75  73  93 NE3       29.88F
KANEOHE MCB    CLOUDY    76  74  93 CALM      29.85S
WHEELER FIELD  FAIR      73  70  91 NW2       29.88F
BELLOWS*         N/A    N/A N/A N/A W3          N/A
KAHUKU*          N/A    N/A N/A N/A E1          N/A
WHEELER*       NOT AVBL
WAIANAE HARBOR NOT AVBL
DILLINGHAM*      N/A     73  72  94 MISG        N/A
KAHUKU TRN*      N/A     82  79  89 SE1         N/A  HX  93
KAWAILOA*        N/A     75  70  83 E3          N/A
KII*             N/A     77  75  94 CALM        N/A
MAKUA RANGE*     N/A     75  70  83 SE3G9       N/A
OAHU FOREST NW   N/A     72  72 100 CALM        N/A
SCHOFIELD BRK*   N/A     72  70  94 MISG        N/A
SCHOFIELD S*   NOT AVBL
WAIANAE VLY*     N/A     72  68  88 MISG        N/A
KUAOKALA*        N/A     75  70  83 E3          N/A
HONOULIUULI*   NOT AVBL
MOKUOLOE IS*   NOT AVBL
PALEHUA*         N/A     70  64  83 NE1         N/A
WAIAWA PHB*    NOT AVBL
$$

HIZ012>013-041300-
MOLOKAI-

CITY           SKY/WX    TMP DP  RH WIND       PRES   REMARKS
MOLOKAI AIRPT  CLOUDY    73  71  93 CALM      29.88F
KALAUPAPA      NOT AVBL
MAKAPULAPAI*     N/A     79  73  83 E9          N/A
MOLOKAI 1*       N/A     72  72 100 VRB2        N/A
PUU ALII*        N/A     63  63 100 SE1G7       N/A
$$

HIZ016-041300-
KAHOOLAWE-

CITY           SKY/WX    TMP DP  RH WIND       PRES   REMARKS
KAHOOLAWE*       N/A     73 N/A N/A E13G21      N/A
HAKIOAWA*        N/A     74  71  89 MISG        N/A
HONOKANAIA*      N/A     81  74  78 NE13G18   29.81F
KANELOA*         N/A     79  73  83 NE13G21   29.94F
KEALIALALO*      N/A     75  70  83 SE12G25   29.87S
LUA MAKIKA*    NOT AVBL
$$

HIZ014>015-041300-
LANAI-

CITY           SKY/WX    TMP DP  RH WIND       PRES   REMARKS
LANAI CITY     FAIR      72  70  94 E7        29.93F
LANAI 1*         N/A     72  72 100 SE3G15      N/A
$$

HIZ017>028-041300-
MAUI-

CITY           SKY/WX    TMP DP  RH WIND       PRES   REMARKS
KAHULUI        PTCLDY    76  73  91 CALM      29.87F
KAPALUA-W MAUI NOT AVBL
HANA AIRPORT   MOCLDY    77  73  88 S2        29.89F
HANA*            N/A     79 N/A N/A SE3         N/A
HALEAKALA SUMM   N/A     46  45  93 E6          N/A
MAALAEA BAY*   NOT AVBL
HALEAKALA*     NOT AVBL
KAUPO GAP*       N/A     64  54  68 CALM        N/A
KULA 1*          N/A     54  50  87 E3          N/A
$$

HIZ023>026-041300-
BIG ISLAND OF HAWAII COAST AND LOWER SLOPES-

CITY           SKY/WX    TMP DP  RH WIND       PRES   REMARKS
KAILUA KONA    CLEAR     81  74  79 SE6       29.84F
HILO           PTCLDY    74  68  81 SW7       29.87F
HONOKAA*       NOT AVBL
KAWAIHAE MWT*    N/A     82 N/A N/A SE2         N/A
KAWAIHAE*        N/A     81 N/A N/A NE2       29.84F
SOUTH POINT*     N/A     73 N/A N/A NE2         N/A
UPOLU AIRPORT*   N/A    N/A N/A N/A E8          N/A
KAMUELA*       NOT AVBL
HAKALAU*         N/A     50  43  77 SW6         N/A
KALOKO-HONOKO*   N/A     77  73  88 NE2       29.83F
PALI 2*          N/A     64  63  94 N8          N/A
KEALAKOMO*     NOT AVBL
KAUPULEHU*       N/A     73  68  83 SE5         N/A
KAPAPALA*        N/A     64  64  98 NW6         N/A
LOWER KAHUKU*    N/A     64  64 100 N2          N/A
PUHE CS*         N/A     81  70  69 SE1         N/A
PUHO CS*         N/A     75  72  90 E2          N/A
PTA KEAMUKU*     N/A     64  61  88 CALM        N/A
WAIKOLOA*        N/A     73  66  78 E10         N/A
$$

HIZ027>028-041300-
BIG ISLAND OF HAWAII INTERIOR AND SUMMMITS-

CITY           SKY/WX    TMP DP  RH WIND       PRES   REMARKS
BRADSHAW FIELD CLOUDY    51  48  88 W1        30.24F
MK VISITOR CEN   N/A     50  34  53 NE6         N/A
MAUNA KEA*       N/A     37  32  81 NW10        N/A
MAUNA LOA*       N/A     43  34  70 MISG        N/A
MAUNA LOA 1*   NOT AVBL
PTA KIPUKA*      N/A     57  55  94 SE5         N/A
PTA RANGE 17*    N/A     54  50  87 SE3G9       N/A
PTA WEST*        N/A     59  57  94 SE10        N/A
NENE CABIN*      N/A     52  43  71 VRB5        N/A
AHUMOA*          N/A     55  46  70 SE8         N/A
PTA PORTABLE*  NOT AVBL
PUU MALI*        N/A     57  50  77 E5          N/A
$$

HIC003-041300-
NORTHWEST ISLANDS-

CITY           SKY/WX    TMP DP  RH WIND       PRES   REMARKS
MIDWAY ISLAND  LGT RAIN  81  75  83 SE6       29.90F FOG
MIDWAY NOS*      N/A     81 N/A N/A MISG      29.89F
FRENCH FRIGATE NOT AVBL
$$

PHZ110>124-180-041300-
BUOY REPORTS

STATION/POSITION TIME  TEMP    WIND        PRES    WAVE   SWELL
                       AIR SEA DIR/SP/G            HT/PER HT/DIR
                 (UTC) (F)     (DEG/KT/KT) (MB)    (FT/S) (FT/D)
BUOY 51001       1158   81 83  170/  2/  6 1010.8
BUOY 51101       1200   81 83  180/  2/  4 1010.5F   9/10   8/ 40
BUOY 51100       NOT AVBL
BUOY 51002       1200   83 84  100/  8/ 10 1010.3F   8/14   8/ 90
BUOY 51003       1200   81 85  160/  8/ 12 1010.4F   7/15   7/ 90
BUOY 51004       1052   81 83   30/ 14/ 16 1009.7   12/14  11/ 90
BARBERS PT BUOY  NOT AVBL
WAIMEA BAY BUOY  1200      83                N/A     4/10   2/ 40
KAILUA BAY BUOY  1200      83                N/A     7/14   5/ 90
LANAI BUOY       NOT AVBL
BARBERS PT 2     1200      83                N/A     4/17   3/190
PAUWELA MAUI     1200      82                N/A     8/13   7/100
HILO             NOT AVBL
KANEOHE BAY BUOY 1200      83                N/A     6/14   3/ 70
HANALEI KAUAI    1200      83                N/A     8/14   5/ 80
KAHULUI HARBOR   1200   80 83  320/ 10/ 14 1010.9F
HONOLULU HARBOR  1200   78 83   70/  2/  3 1011.3F
KILO NALU        NOT AVBL
HILO HARBOR      1200   75 80  210/  2/  3 1011.3F
MOKUOLOE         1200   77     200/  2/  3   N/A
NAWILIWILI       1200   77 84   CALM  /  3 1011.1F
WHOTS BUOY       NOT AVBL
BUOY 51028       NOT AVBL
$$

......................KEY........................................
  SKY/WX - SKY CONDITIONS/PRESENT WEATHER
  TMP    - TEMPERATURE IN FAHRENHEIT
  DWPT   - DEWPOINT IN FAHRENHEIT
  RH     - RELATIVE HUMIDITY IN PERCENT
  WIND   - DIRECTION AND SPEED /MPH FOR ISLANDS...KTS FOR BUOYS/
  PRES   - MEAN SEA LEVEL PRESSURE IN INCHES OF HG
  VSB    - VISIBILITY IN MILES
  HX     - HEAT INDEX
  WCI    - WIND CHILL INDEX
  VRB    - VARIABLE WIND DIRECTION
  N/A    - NOT AVAILABLE



USA.gov is the U.S. government's official web portal to all federal, state and local government web resources and services.